Rotterdam, Netherlands

5:28 AM CET on February 24, 2018 (GMT +0100)
Rotterdam

Weather History for EHRD - December, 2013

Change the Weather History Date:

Saturday, December 7, 2013

  Actual Average Record
Temperature  
Mean Temperature 43 °F -  
Max Temperature 48 °F 42 °F 55 °F (2007)
Min Temperature 38 °F 34 °F 24 °F (2010)
Degree Days  
Heating Degree Days 22    
Moisture  
Dew Point 40 °F    
Average Humidity 87    
Maximum Humidity 100    
Minimum Humidity 70    
Precipitation  
Precipitation 0.08 in - - ()
Sea Level Pressure  
Sea Level Pressure 30.25 in    
Wind  
Wind Speed 7 mph ()    
Max Wind Speed 13 mph    
Max Gust Speed -    
Visibility 6.3 miles    
Events Rain    
Averages and records for this station are not official NWS values.
T = Trace of Precipitation, MM = Missing Value Source: Averaged Metar Reports

Daily Weather History Graph

Daily Weather History Graph

Search for Another Location

Airport or City:

Trip Planner

Search our weather history database for the weather conditions in past years. The results will help you decide how hot, cold, wet, or windy it might be!

Date:

Astronomy

Dec. 07, 2013 Rise Set
Actual Time 8:35 AM CET 4:31 PM CET
Civil Twilight 7:55 AM CET 5:11 PM CET
Nautical Twilight 7:12 AM CET 5:55 PM CET
Astronomical Twilight 6:31 AM CET 6:36 PM CET
Moon 11:46 AM CET (12/7) 10:22 PM CET (12/7)
Length of Visible Light 9h 16m
Length of Day
7h 56m
Waxing Crescent, 26% of the Moon is Illuminated
Dec 7
Waxing Crescent
Dec 9
First Quarter
Dec 17
Full
Dec 25
Last Quarter
Jan 1
New

Hourly Weather History & Observations

Time (CET) Temp. Windchill Dew Point Humidity Pressure Visibility Wind Dir Wind Speed Gust Speed Precip Events Conditions
12:25 AM 41.0 °F 35.2 °F 35.6 °F 81% 30.30 in 6.2 mi West 9.2 mph - N/A   Overcast
12:55 AM 41.0 °F 35.2 °F 33.8 °F 76% 30.30 in 6.2 mi WNW 9.2 mph - N/A   Overcast
1:00 AM 41 °F - 35 °F 70% 30.30 in 12 mi WNW 8.9 mph - - Rain Rain
1:25 AM 41.0 °F 35.2 °F 33.8 °F 76% 30.27 in 6.2 mi West 9.2 mph - N/A   Overcast
1:55 AM 41.0 °F 34.7 °F 33.8 °F 76% 30.27 in 6.2 mi West 10.4 mph - N/A   Overcast
2:25 AM 39.2 °F 33.0 °F 32.0 °F 75% 30.30 in 6.2 mi West 9.2 mph - N/A   Mostly Cloudy
2:55 AM 39.2 °F 33.6 °F 32.0 °F 75% 30.30 in 6.2 mi West 8.1 mph - N/A   Overcast
3:25 AM 39.2 °F 33.6 °F 32.0 °F 75% 30.30 in 6.2 mi West 8.1 mph - N/A   Mostly Cloudy
3:55 AM 41.0 °F 37.1 °F 33.8 °F 76% 30.30 in 6.2 mi West 5.8 mph - N/A   Overcast
4:00 AM 40 °F - 34 °F 70% 30.31 in 16 mi West 4.5 mph - -   Overcast
4:25 AM 41.0 °F 37.1 °F 33.8 °F 76% 30.30 in 6.2 mi West 5.8 mph - N/A   Overcast
4:55 AM 41.0 °F 35.8 °F 35.6 °F 81% 30.30 in 6.2 mi West 8.1 mph - N/A   Overcast
5:25 AM 41.0 °F 37.1 °F 37.4 °F 87% 30.30 in 6.2 mi WNW 5.8 mph - N/A   Overcast
5:55 AM 41.0 °F 37.1 °F 37.4 °F 87% 30.30 in - West 5.8 mph - N/A Rain Light Rain
6:25 AM 39.2 °F 35.9 °F 39.2 °F 100% 30.27 in 1.8 mi West 4.6 mph - N/A   Drizzle
6:55 AM 39.2 °F 37.0 °F 39.2 °F 100% 30.27 in - WSW 3.5 mph - N/A   Light Drizzle
7:00 AM 39 °F - 39 °F 100% 30.28 in 3 mi SW 4.5 mph - - Rain Light Drizzle
7:25 AM 39.2 °F 35.9 °F 39.2 °F 100% 30.27 in - SSW 4.6 mph - N/A   Light Drizzle
7:55 AM 39.2 °F 35.9 °F 39.2 °F 100% 30.27 in - South 4.6 mph - N/A   Mostly Cloudy
8:25 AM 39.2 °F 35.0 °F 39.2 °F 100% 30.27 in 3.7 mi South 5.8 mph - N/A   Partly Cloudy
8:55 AM 39.2 °F 35.0 °F 39.2 °F 100% 30.27 in 3.1 mi South 5.8 mph - N/A   Light Drizzle
9:25 AM 39.2 °F 35.0 °F 39.2 °F 100% 30.27 in 3.1 mi South 5.8 mph - N/A   Overcast
9:55 AM 41.0 °F 35.8 °F 39.2 °F 93% 30.27 in - South 8.1 mph - N/A   Partly Cloudy
10:00 AM 41 °F - 40 °F 96% 30.27 in 2 mi South 6.7 mph - - Rain Light Rain Showers
10:25 AM 41.0 °F 35.8 °F 41.0 °F 100% 30.24 in - South 8.1 mph - N/A   Overcast
10:55 AM 42.8 °F 38.6 °F 41.0 °F 93% 30.24 in - SSW 6.9 mph - N/A   Overcast
11:25 AM 44.6 °F 40.2 °F 42.8 °F 93% 30.24 in - SSW 8.1 mph - N/A   Partly Cloudy
11:55 AM 46.4 °F 42.4 °F 44.6 °F 93% 30.24 in 3.7 mi SW 8.1 mph - N/A   Partly Cloudy
12:25 PM 46.4 °F 41.9 °F 44.6 °F 93% 30.24 in 6.2 mi WSW 9.2 mph - N/A   Mostly Cloudy
12:55 PM 46.4 °F 41.5 °F 44.6 °F 93% 30.24 in 6.2 mi West 10.4 mph - N/A   Mostly Cloudy
1:00 PM 47 °F - 44 °F 87% 30.24 in 25 mi West 8.9 mph - - Rain Rain
1:25 PM 48.2 °F - 44.6 °F 87% 30.21 in 6.2 mi West 9.2 mph - N/A   Overcast
1:55 PM 48.2 °F - 44.6 °F 87% 30.21 in 6.2 mi West 11.5 mph - N/A   Mostly Cloudy
2:25 PM 48.2 °F - 44.6 °F 87% 30.21 in 6.2 mi West 11.5 mph - N/A   Overcast
2:55 PM 48.2 °F - 44.6 °F 87% 30.21 in 6.2 mi West 11.5 mph - N/A   Partly Cloudy
3:25 PM 46.4 °F 41.5 °F 44.6 °F 93% 30.21 in 6.2 mi West 10.4 mph - N/A   Mostly Cloudy
3:55 PM 46.4 °F 41.1 °F 42.8 °F 87% 30.21 in 6.2 mi West 11.5 mph - N/A Rain Light Rain
4:00 PM 47 °F - 43 °F 82% 30.23 in 17 mi West 13.4 mph - - Rain Rain
4:25 PM 46.4 °F 41.5 °F 42.8 °F 87% 30.21 in 6.2 mi West 10.4 mph - N/A   Mostly Cloudy
4:55 PM 46.4 °F 41.9 °F 42.8 °F 87% 30.21 in 6.2 mi West 9.2 mph - N/A   Mostly Cloudy
5:25 PM 46.4 °F 42.4 °F 42.8 °F 87% 30.21 in 6.2 mi West 8.1 mph - N/A   Drizzle
5:55 PM 46.4 °F 42.4 °F 42.8 °F 87% 30.21 in 6.2 mi West 8.1 mph - N/A   Mostly Cloudy
6:25 PM 46.4 °F 42.4 °F 42.8 °F 87% 30.21 in 6.2 mi West 8.1 mph - N/A   Partly Cloudy
6:55 PM 46.4 °F 42.4 °F 42.8 °F 87% 30.21 in 6.2 mi West 8.1 mph - N/A   Scattered Clouds
7:00 PM 47 °F - 42 °F 79% 30.23 in 22 mi West 8.9 mph - -   Partly Cloudy
7:25 PM 46.4 °F 42.4 °F 42.8 °F 87% 30.21 in 6.2 mi West 8.1 mph - N/A   Mostly Cloudy
7:55 PM 46.4 °F 41.9 °F 42.8 °F 87% 30.21 in 6.2 mi West 9.2 mph - N/A   Partly Cloudy
8:25 PM 46.4 °F 41.9 °F 42.8 °F 87% 30.21 in 6.2 mi WSW 9.2 mph - N/A   Unknown
8:55 PM 46.4 °F 42.4 °F 41.0 °F 81% 30.21 in 6.2 mi WSW 8.1 mph - N/A   Unknown
9:25 PM 46.4 °F 41.5 °F 42.8 °F 87% 30.21 in 6.2 mi West 10.4 mph - N/A   Partly Cloudy
9:55 PM 46.4 °F 41.9 °F 41.0 °F 81% 30.21 in 6.2 mi West 9.2 mph - N/A   Partly Cloudy
10:00 PM 46 °F - 42 °F 80% 30.24 in 22 mi West 8.9 mph - -   Overcast
10:25 PM 46.4 °F 42.4 °F 41.0 °F 81% 30.24 in 6.2 mi West 8.1 mph - N/A   Scattered Clouds
10:55 PM 46.4 °F 42.4 °F 42.8 °F 87% 30.24 in 6.2 mi West 8.1 mph - N/A   Partly Cloudy
11:25 PM 46.4 °F 42.4 °F 42.8 °F 87% 30.21 in 6.2 mi West 8.1 mph - N/A   Partly Cloudy
11:55 PM 46.4 °F 42.9 °F 42.8 °F 87% 30.21 in 6.2 mi West 6.9 mph - N/A   Partly Cloudy